Cork, Ireland

8:06 AM IST on September 20, 2017 (GMT +0100)
Cork

Weather History for EICK - November, 2011

Change the Weather History Date:

Monday, November 28, 2011

  Actual Average Record
Temperature  
Mean Temperature 48 °F -  
Max Temperature 53 °F 47 °F 55 °F (2000)
Min Temperature 43 °F 38 °F 26 °F (2010)
Degree Days  
Heating Degree Days 17    
Moisture  
Dew Point 47 °F    
Average Humidity 89    
Maximum Humidity 100    
Minimum Humidity 32    
Precipitation  
Precipitation 0.20 in 0.18 in - ()
Sea Level Pressure  
Sea Level Pressure 29.90 in    
Wind  
Wind Speed 13 mph ()    
Max Wind Speed 29 mph    
Max Gust Speed 44 mph    
Visibility 4.8 miles    
Events Fog , Rain    
Averages and records for this station are not official NWS values.
T = Trace of Precipitation, MM = Missing Value Source: Averaged Metar Reports

Daily Weather History Graph

Daily Weather History Graph

Search for Another Location

Airport or City:

Trip Planner

Search our weather history database for the weather conditions in past years. The results will help you decide how hot, cold, wet, or windy it might be!

Date:

Astronomy

Nov. 28, 2011 Rise Set
Actual Time 8:13 AM GMT 4:29 PM GMT
Civil Twilight 7:34 AM GMT 5:08 PM GMT
Nautical Twilight 6:52 AM GMT 5:50 PM GMT
Astronomical Twilight 6:12 AM GMT 6:30 PM GMT
Moon 11:12 AM GMT (11/28) 8:05 PM GMT (11/28)
Length of Visible Light 9h 33m
Length of Day
8h 15m
Waxing Crescent, 14% of the Moon is Illuminated
Nov 28
Waxing Crescent
Dec 2
First Quarter
Dec 10
Full
Dec 18
Last Quarter
Dec 24
New

Hourly Weather History & Observations

Time (GMT) Temp. Windchill Dew Point Humidity Pressure Visibility Wind Dir Wind Speed Gust Speed Precip Events Conditions
12:00 AM 46 °F - 39 °F 67% 30.27 in 19 mi SSW 6.7 mph - -   Mostly Cloudy
12:00 AM 46.4 °F 42.9 °F 39.2 °F 76% 30.24 in 6.2 mi SSW 6.9 mph - N/A   Mostly Cloudy
12:30 AM 46.4 °F 41.5 °F 39.2 °F 76% 30.24 in 6.2 mi SSW 10.4 mph - N/A   Mostly Cloudy
1:00 AM 46.4 °F 41.5 °F 39.2 °F 76% 30.21 in 6.2 mi SSW 10.4 mph - N/A   Mostly Cloudy
1:30 AM 46.4 °F 41.9 °F 39.2 °F 76% 30.18 in 6.2 mi SSW 9.2 mph - N/A   Mostly Cloudy
2:00 AM 46.4 °F 41.1 °F 39.2 °F 76% 30.18 in 6.2 mi SSW 11.5 mph - N/A   Mostly Cloudy
2:30 AM 46.4 °F 41.1 °F 39.2 °F 76% 30.15 in 6.2 mi South 11.5 mph - N/A   Mostly Cloudy
3:00 AM 46.4 °F 40.1 °F 41.0 °F 81% 30.12 in 6.2 mi South 15.0 mph - N/A   Mostly Cloudy
3:30 AM 46.4 °F 39.8 °F 39.2 °F 76% 30.12 in 6.2 mi SSW 16.1 mph - N/A   Mostly Cloudy
4:00 AM 46.4 °F 41.1 °F 41.0 °F 81% 30.12 in 6.2 mi SSW 11.5 mph - N/A   Mostly Cloudy
4:30 AM 48.2 °F - 42.8 °F 82% 30.09 in 6.2 mi South 13.8 mph - N/A   Mostly Cloudy
5:00 AM 48.2 °F - 41.0 °F 76% 30.09 in 6.2 mi SSW 15.0 mph - N/A   Mostly Cloudy
5:30 AM 48.2 °F - 41.0 °F 76% 30.06 in 6.2 mi SSW 16.1 mph - N/A   Mostly Cloudy
6:00 AM 48 °F - 41 °F 69% 30.08 in 19 mi South 13.4 mph - -   Mostly Cloudy
6:00 AM 48.2 °F - 41.0 °F 76% 30.06 in 6.2 mi South 13.8 mph - N/A   Mostly Cloudy
6:30 AM 48.2 °F - 41.0 °F 76% 30.04 in 6.2 mi South 13.8 mph - N/A   Mostly Cloudy
7:00 AM 48.2 °F - 41.0 °F 76% 30.01 in 6.2 mi South 16.1 mph - N/A   Mostly Cloudy
7:30 AM 48.2 °F - 42.8 °F 82% 30.01 in 6.2 mi South 15.0 mph - N/A   Mostly Cloudy
8:00 AM 48.2 °F - 19.4 °F 32% 30.01 in 6.2 mi South 13.8 mph - N/A   Mostly Cloudy
8:30 AM 50.0 °F - 44.6 °F 82% 29.98 in 6.2 mi South 15.0 mph - N/A   Mostly Cloudy
9:00 AM 50.0 °F - 46.4 °F 87% 29.98 in 3.7 mi South 16.1 mph - N/A Rain Light Rain
9:30 AM 48.2 °F - 48.2 °F 100% 29.95 in 2.5 mi South 16.1 mph - N/A Rain Light Rain
10:00 AM 48.2 °F - 48.2 °F 100% 29.95 in 2.2 mi South 16.1 mph - N/A Rain Light Rain
10:30 AM 48.2 °F - 48.2 °F 100% 29.92 in 2.2 mi South 15.0 mph - N/A Rain Light Rain
11:00 AM 50.0 °F - 50.0 °F 100% 29.92 in 1.6 mi South 13.8 mph - N/A Rain Light Rain
11:30 AM 50.0 °F - 50.0 °F 100% 29.89 in 0.5 mi South 16.1 mph - N/A Fog , Rain Light Rain
12:00 PM 51 °F - 51 °F 98% 29.90 in 0 mi South 13.4 mph - - Rain Light Rain
12:00 PM 50.0 °F - 50.0 °F 100% 29.89 in 0.5 mi South 13.8 mph - N/A Fog , Rain Light Rain
12:30 PM 51.8 °F - 51.8 °F 100% 29.89 in 0.4 mi South 10.4 mph - N/A Fog , Rain Light Rain
1:00 PM 51.8 °F - 51.8 °F 100% 29.86 in 0.2 mi South 10.4 mph - N/A Fog , Rain Light Rain
1:30 PM 51.8 °F - 51.8 °F 100% 29.83 in 0.4 mi SSW 12.7 mph - N/A Fog , Rain Light Rain
2:00 PM 53.6 °F - 53.6 °F 100% 29.80 in 0.9 mi SSW 15.0 mph - N/A Rain Light Rain
2:30 PM 53.6 °F - 53.6 °F 100% 29.80 in 1.4 mi SSW 16.1 mph - N/A Rain Light Rain
3:00 PM 53.6 °F - 53.6 °F 100% 29.77 in 0.9 mi SSW 15.0 mph - N/A Rain Light Rain
3:30 PM 53.6 °F - 53.6 °F 100% 29.77 in 0.4 mi SSW 17.3 mph - N/A Fog Fog
4:00 PM 53.6 °F - 53.6 °F 100% 29.74 in 1.9 mi SSW 15.0 mph - N/A Rain Light Rain
4:30 PM 53.6 °F - 53.6 °F 100% 29.74 in 1.9 mi SSW 20.7 mph - N/A Rain Light Rain
5:00 PM 53.6 °F - 53.6 °F 100% 29.74 in 2.8 mi SW 19.6 mph - N/A Rain Light Rain
5:30 PM 53.6 °F - 53.6 °F 100% 29.71 in 6.2 mi SSW 19.6 mph - N/A Rain Light Rain
6:00 PM 53 °F - 53 °F 100% 29.73 in 4 mi SSW 24.6 mph - - Rain Light Rain
6:00 PM 53.6 °F - 53.6 °F 100% 29.71 in 3.7 mi SSW 24.2 mph 35.7 mph N/A Rain Light Rain
6:30 PM 53.6 °F - 53.6 °F 100% 29.71 in 3.1 mi SSW 23.0 mph 36.8 mph N/A Rain Light Rain
7:00 PM 53.6 °F - 53.6 °F 100% 29.68 in 3.1 mi SSW 24.2 mph 38.0 mph N/A Rain Light Rain
7:30 PM 53.6 °F - 51.8 °F 94% 29.68 in 4.3 mi SSW 26.5 mph 38.0 mph N/A Rain Light Rain
8:00 PM 53.6 °F - 53.6 °F 100% 29.65 in 6.2 mi SSW 25.3 mph 39.1 mph N/A   Mostly Cloudy
8:30 PM 53.6 °F - 53.6 °F 100% 29.65 in 6.2 mi SSW 26.5 mph 41.4 mph N/A   Mostly Cloudy
9:00 PM 53.6 °F - 53.6 °F 100% 29.62 in 6.2 mi SSW 25.3 mph 38.0 mph N/A Rain Light Rain
9:30 PM 53.6 °F - 51.8 °F 94% 29.62 in 6.2 mi SSW 25.3 mph 38.0 mph N/A   Mostly Cloudy
10:00 PM 53.6 °F - 51.8 °F 94% 29.59 in 6.2 mi SSW 28.8 mph 43.7 mph N/A   Mostly Cloudy
10:30 PM 53.6 °F - 51.8 °F 94% 29.59 in 6.2 mi SSW 26.5 mph 42.6 mph N/A   Mostly Cloudy
11:00 PM 53.6 °F - 51.8 °F 94% 29.56 in 6.2 mi SSW 27.6 mph 40.3 mph N/A   Mostly Cloudy
11:30 PM 53.6 °F - 51.8 °F 94% 29.56 in 6.2 mi SSW 26.5 mph 39.1 mph N/A   Mostly Cloudy